Simultaneous Nadir Overpasses (SNOs) Predictions

Prediction of SNOs between METOP-B and NOAA-19 Satellite Orbit:

Table of predicted SNOs for the next 14.0 days since TLE Epoch: 11/16/2018
Index Date (METOP-B) Time (METOP-B) Lat,Lon (METOP-B) SZA (METOP-B ) Date (NOAA-19) Time (NOAA-19) Lat,Lon (NOAA-19) SZA (NOAA-19 ) Distance(km) Time Diff (sec)
1 11/17/2018 01:51:16 -78.91, -14.62 81.76 11/17/2018 01:50:05 -78.91, -16.29 81.86 35.69 71
2 11/17/2018 02:42:00 78.79, 151.91 98.09 11/17/2018 02:41:03 78.80, 151.84 98.08 1.93 57
3 11/17/2018 03:32:41 -78.79, -40.77 81.91 11/17/2018 03:32:02 -78.78, -40.78 81.92 0.75 39
4 11/17/2018 04:23:22 78.77, 126.49 98.09 11/17/2018 04:23:03 78.76, 126.59 98.08 2.57 19
5 11/17/2018 05:14:03 -78.77, -66.19 81.91 11/17/2018 05:14:03 -78.78, -66.28 81.91 2.19 0
6 11/17/2018 06:04:44 78.76, 101.06 98.09 11/17/2018 06:05:04 78.76, 101.09 98.10 0.59 20
7 11/17/2018 06:55:25 -78.76, -91.61 81.91 11/17/2018 06:56:03 -78.75, -91.54 81.91 2.31 38
8 11/17/2018 07:46:06 78.75, 75.64 98.09 11/17/2018 07:47:05 78.76, 75.60 98.11 1.73 59
9 11/17/2018 08:36:50 -78.64,-117.73 82.05 11/17/2018 08:38:02 -78.68,-116.54 81.93 26.40 72
10 11/28/2018 00:32:50 78.87,-175.24 100.47 11/28/2018 00:31:37 78.89,-176.09 100.44 18.21 73
11 11/28/2018 01:23:33 -78.80, -8.36 79.62 11/28/2018 01:22:32 -78.82, -8.31 79.61 2.75 61
12 11/28/2018 02:14:13 78.82, 159.09 100.42 11/28/2018 02:13:36 78.82, 158.92 100.41 3.72 37
13 11/28/2018 03:04:54 -78.82, -33.55 79.57 11/28/2018 03:04:32 -78.79, -33.57 79.61 3.94 22
14 11/28/2018 03:55:35 78.81, 133.67 100.41 11/28/2018 03:55:36 78.79, 133.67 100.40 1.94 1
15 11/28/2018 04:46:16 -78.81, -58.97 79.58 11/28/2018 04:46:33 -78.79, -59.07 79.60 3.33 17
16 11/28/2018 05:36:57 78.79, 108.25 100.41 11/28/2018 05:37:37 78.79, 108.17 100.41 1.74 40
17 11/28/2018 06:27:39 -78.76, -84.63 79.63 11/28/2018 06:28:34 -78.79, -84.57 79.59 3.27 55
18 11/28/2018 07:18:24 78.59, 81.65 100.17 11/28/2018 07:19:33 78.62, 83.90 100.32 49.56 69




NCC Satellite Simultaneous Nadir Overpasses (SNOs) Prediction Service
